{"data":{"norad_id":58776,"epoch":"2026-05-24T22:53:48.090048Z","epoch_age_seconds":72223,"freshness":"FRESH","line1":"1 58776U 24011M   26144.95402882  .00001980  00000+0  78978-4 0  9996","line2":"2 58776  53.1608  19.6438 0001134  92.8590 267.2541 15.30193524131949","mean_motion":15.30193524,"eccentricity":0.0001134,"inclination_deg":53.1608,"raan_deg":19.6438,"arg_perigee_deg":92.859,"mean_anomaly_deg":267.2541,"bstar":7.8978e-5,"rev_number":13194,"period_min":94.105743973858,"perigee_km":474.45723333881,"apogee_km":476.01157797361,"semimajor_km":6853.3714056562,"source":"CELESTRAK","updated_at":"2026-05-25T13:38:18.746277Z"}}